Cloud_Cover
98 52 5 7 70 55 5 92 99 98 32 5 53 47 27 5 2 0 0 4 5 5 5 13 100 100 100 100 100 62 100 66
80 5 5 5 69 45 87 100 100 61 18 21 8 5 1 0 0 0 1 5 5 5 5 90 100 100 100 100 100 90 73 60
32 5 5 11 100 94 100 100 54 13 5 5 2 0 0 0 0 0 0 5 5 5 5 46 82 69 100 100 100 99 75 83
5 5 32 100 100 100 100 65 15 5 4 0 0 0 0 0 0 2 3 4 5 5 5 6 14 36 99 100 100 89 98 79
8 55 100 100 100 100 100 47 4 0 0 0 0 0 0 0 0 5 5 5 5 5 5 5 17 24 100 100 100 92 99 87
10 100 100 100 100 100 80 5 0 0 0 0 0 0 0 0 1 5 5 5 4 5 5 5 5 23 100 100 87 100 84 98
90 100 100 100 100 65 5 5 0 0 0 0 0 0 0 0 0 1 5 5 5 0 5 5 5 6 84 93 77 94 99 82
100 100 100 100 96 24 6 0 0 0 0 0 0 0 0 0 0 0 5 5 5 0 5 5 5 5 68 88 97 99 100 99
100 100 100 93 16 28 0 0 0 0 0 0 0 0 0 0 0 0 3 5 5 4 5 5 5 5 96 98 99 100 100 100
100 100 68 11 12 1 4 0 0 0 0 0 0 0 0 0 0 0 5 5 1 5 5 5 5 21 100 100 100 92 100 100
100 54 5 5 5 0 0 0 0 0 0 0 0 0 0 0 0 0 5 5 5 5 5 5 10 77 88 100 80 100 100 100
69 5 6 15 4 0 0 0 0 0 0 0 0 0 0 0 5 5 5 3 5 5 5 6 50 82 71 99 100 100 100 100
5 56 19 5 0 0 0 0 0 0 0 0 0 0 0 0 5 5 5 5 5 5 5 34 68 81 90 84 100 100 100 100
63 15 5 4 0 0 0 0 0 0 0 0 0 0 0 0 5 5 5 5 5 5 5 66 100 98 86 92 100 100 100 100
29 5 2 0 0 0 0 0 0 0 0 0 0 0 0 0 5 5 5 4 5 5 5 93 100 99 100 100 100 100 100 100
5 3 0 0 0 0 0 0 0 0 0 0 0 0 0 0 5 5 5 3 5 5 5 57 100 97 99 100 100 100 100 100
5 0 0 0 0 0 0 0 0 0 0 0 0 0 0 0 5 5 0 4 5 5 5 50 100 95 85 100 100 100 100 100
0 0 0 0 0 0 0 0 0 0 0 0 0 0 5 5 5 4 1 5 5 5 5 5 91 81 84 100 100 100 100 100
0 0 0 0 0 0 0 0 0 0 0 0 0 2 5 5 5 5 5 4 5 5 5 5 46 77 100 100 97 100 100 100